[[{"header":{"parameterUnit":"m.s-1","parameterCategory":1,"la1":30.2991,"la2":30.254,"lo1":-89.0895,"lo2":-89.0444,"dy":0.0017,"dx":0.0017,"nx":28,"ny":28,"refTime":"2024-07-28T21:00:00:Z","depth":0,"parameterNumber":2,"parameterNumberName":"U-component_of_WINDS"},"data":[0,0,0,0,0,0,0,0,0,0,0,0,0,0,0,0,0,0,0,0,0,0,0,0,0,0,0,0,0,0,0,0,0,0,0,0,0,0,0,0,0,0,0,0,0,0,0,0,0,0,0,0,0,0,0,0,0,0,1.6191,1.6189,0,1.6065,1.6064,1.6063,1.5917,1.5915,1.5913,1.591,1.5786,1.5785,1.5784,0,0,0,0,0,0,0,0,0,0,0,0,0,1.6306,1.6304,1.6191,1.6189,1.6188,1.6066,1.6064,1.6062,1.5917,1.5915,1.5912,1.5909,1.5787,1.5785,1.5784,0,0,0,0,0,0,0,0,0,0,0,0,0,1.6226,1.6304,1.6191,1.6101,1.6091,1.6066,1.6064,1.6062,1.5918,1.5915,1.5911,1.5908,1.5787,1.5785,1.5783,1.5838,0,0,1.5778,1.5777,0,0,0,0,0,0,0,0,1.6231,1.6222,1.6116,1.6107,1.6096,1.6003,1.6059,1.5987,1.5919,1.5984,1.591,1.5907,1.5861,1.5853,1.5837,1.5833,1.5827,1.5778,1.5776,1.5776,1.5775,0,0,0,0,0,0,0,1.6236,1.6226,1.6141,1.6114,1.6102,1.6067,1.6052,1.6044,1.5943,1.5978,1.5967,1.5954,1.5856,1.5839,1.5833,1.5825,1.5778,1.5776,1.5775,1.5774,1.5855,1.5858,0,0,0,0,0,0,1.6255,1.6232,1.6145,1.6138,1.6157,1.6067,1.605,1.6037,1.5943,1.5925,1.5957,1.5948,1.5844,1.5836,1.5828,1.5883,1.5776,1.5774,1.5773,1.5852,1.5856,1.5859,0,0,0,0,0,0,1.6258,1.6249,1.615,1.6182,1.6166,1.6069,1.6055,1.6036,1.6019,1.5927,1.5908,1.5959,1.5841,1.5831,1.5835,1.5877,1.5773,1.5771,1.5848,1.5853,1.5857,1.5996,0,0,0,0,0,0,1.6262,1.6251,1.6271,1.6183,1.6165,1.616,1.6057,1.6036,1.6016,1.6003,1.5924,1.5907,1.5838,1.5839,1.5834,1.5872,1.577,1.5844,1.585,1.5856,1.5987,1.6005,1.602,0,0,0,0,0,1.6267,1.6317,1.6273,1.6263,1.6188,1.6163,1.6153,1.607,1.602,1.6039,1.5979,1.591,1.5873,1.5841,1.5834,1.5872,1.5841,1.5848,1.5855,1.598,1.6001,1.6019,0,0,0,0,0,0,1.6414,1.6304,1.6254,1.6276,1.623,1.6138,1.616,1.6097,1.6064,1.6054,1.5954,1.5937,1.5953,1.5913,1.5879,1.5918,1.5847,1.5853,1.5944,1.5963,1.598,1.5989,1.5768,0,0,0,0,0,1.6449,1.6437,1.6341,1.6371,1.6349,1.6259,1.6245,1.6185,1.6134,1.6114,1.6054,1.6007,1.5984,1.5972,1.5946,1.598,1.596,1.6003,1.602,1.6034,1.604,1.6051,1.6069,1.5883,1.5883,1.5883,0,0,1.6521,1.6459,1.6458,1.6398,1.6355,1.6345,1.6244,1.6238,1.6229,1.6113,1.6112,1.6067,1.6008,1.6027,1.6032,1.5994,1.6086,1.6043,1.6055,1.6053,1.6061,1.6078,1.6094,1.5888,1.5887,1.5886,0,0,1.6647,1.66,1.6617,1.6575,1.651,1.6449,1.6453,1.637,1.6335,1.6332,1.6244,1.6232,1.6197,1.6157,1.6132,1.6239,1.6173,1.6234,1.6319,1.6332,1.6346,1.6359,1.6394,1.6409,1.624,1.6241,1.6241,0,1.6745,1.6725,1.6635,1.6633,1.6608,1.65,1.6516,1.648,1.6412,1.6397,1.6355,1.6304,1.6257,1.6263,1.6289,1.6274,1.6274,1.6242,1.6351,1.6363,1.6373,1.6406,1.642,1.6248,1.6247,1.6247,1.6246,0,1.6848,1.6835,1.6857,1.679,1.6768,1.6776,1.6686,1.6674,1.6616,1.6559,1.6556,1.6496,1.6454,1.6451,1.6396,1.6449,1.6426,1.637,1.6295,1.64,1.6429,1.6441,1.6259,1.6256,1.6254,1.6252,0,0,1.7065,1.6944,1.6954,1.692,1.6839,1.6828,1.683,1.6787,1.6777,1.6733,1.6731,1.6701,1.6646,1.6618,1.6557,1.6568,1.6653,1.6509,1.6506,1.6536,1.6704,1.6746,1.6763,1.6609,1.6611,1.6613,1.6708,0,1.7174,1.7169,1.7086,1.7104,1.709,1.6986,1.6987,1.6937,1.6884,1.6864,1.6805,1.6784,1.6715,1.6696,1.6703,1.6641,1.6685,1.6633,1.6605,1.6605,1.6622,1.6778,1.6823,1.6917,1.6719,1.6721,1.6722,0,1.7302,1.7261,1.7278,1.7192,1.7183,1.7186,1.7138,1.712,1.7061,1.7021,1.6988,1.6917,1.6912,1.6842,1.6833,1.6799,1.6782,1.675,1.6752,1.6745,1.667,1.6774,1.6945,1.6958,1.674,1.6739,1.6737,0,1.7455,1.7405,1.7407,1.7382,1.7284,1.7287,1.7246,1.7183,1.7162,1.712,1.7105,1.7065,1.7042,1.7012,1.6932,1.6889,1.693,1.6855,1.6896,1.6898,1.6909,1.6909,1.7078,1.6902,1.6901,1.6901,1.6901,0,1.7585,1.7599,1.7474,1.7475,1.7487,1.7391,1.7405,1.7354,1.7298,1.7287,1.7196,1.7188,1.7083,1.7063,1.7,1.7,1.6991,1.6958,1.6941,1.6965,1.6969,1.6952,1.6943,1.6905,1.6904,1.6903,1.6903,0,1.7758,1.7675,1.767,1.7576,1.7552,1.7565,1.7484,1.7481,1.742,1.7408,1.7399,1.7305,1.7276,1.7192,1.7143,1.7101,1.7118,1.7087,1.7138,1.7127,1.7171,1.7168,1.7334,1.735,1.7166,1.7168,1.7169,0,1.7846,1.7853,1.7758,1.7743,1.7706,1.7684,1.766,1.7566,1.7545,1.7476,1.7481,1.7444,1.7409,1.7368,1.7295,1.7256,1.7222,1.7283,1.7216,1.7239,1.722,1.722,1.7219,1.7298,1.73,1.7302,1.7304,0,1.8009,1.7967,1.7936,1.789,1.7864,1.7824,1.7778,1.7772,1.7665,1.7647,1.7615,1.7588,1.7535,1.7499,1.7448,1.7405,1.7337,1.7325,1.7332,1.7357,1.7385,1.7368,1.7176,1.7322,1.732,1.7319,1.7318,1.7317,1.814,1.814,1.8073,1.8041,1.7996,1.7955,1.7946,1.7883,1.7855,1.7803,1.7749,1.7723,1.766,1.7583,1.7546,1.7523,1.7487,1.7498,1.75,1.7504,1.7514,1.7389,1.7514,1.7513,1.7512,1.7512,1.7511,0,1.8297,1.8247,1.8219,1.8156,1.8131,1.8066,1.8012,1.7995,1.7972,1.7919,1.7885,1.7847,1.7811,1.7734,1.7691,1.7687,1.7654,1.7679,1.7677,1.7668,1.755,1.7547,1.7706,1.7706,1.7706,1.7706,1.7706,1.7706,1.8375,1.8371,1.8321,1.8293,1.8243,1.8215,1.8189,1.815,1.8106,1.8067,1.8036,1.7986,1.7922,1.7873,1.7836,1.7814,1.7802,1.7836,1.7804,1.7695,1.7677,1.7659,1.7656,1.7835,1.7835,1.7923,1.7924,1.7925]},{"header":{"parameterUnit":"m.s-1","parameterCategory":1,"la1":30.2991,"la2":30.254,"lo1":-89.0895,"lo2":-89.0444,"dy":0.0017,"dx":0.0017,"nx":28,"ny":28,"refTime":"2024-07-28T21:00:00:Z","depth":0,"parameterNumber":3,"parameterNumberName":"V-component_of_WINDS"},"data":[0,0,0,0,0,0,0,0,0,0,0,0,0,0,0,0,0,0,0,0,0,0,0,0,0,0,0,0,0,0,0,0,0,0,0,0,0,0,0,0,0,0,0,0,0,0,0,0,0,0,0,0,0,0,0,0,0,0,3.335,3.3351,0,3.3434,3.3435,3.3436,3.3439,3.3438,3.3437,3.3436,3.3516,3.3519,3.3522,0,0,0,0,0,0,0,0,0,0,0,0,0,3.3188,3.3191,3.335,3.3351,3.3353,3.3434,3.3435,3.3436,3.3439,3.3438,3.3437,3.3436,3.3515,3.3519,3.3522,0,0,0,0,0,0,0,0,0,0,0,0,0,3.3264,3.3192,3.335,3.3364,3.3366,3.3433,3.3435,3.3436,3.3439,3.3438,3.3436,3.3435,3.3514,3.3518,3.3523,3.358,0,0,3.3537,3.3539,0,0,0,0,0,0,0,0,3.326,3.327,3.3361,3.3363,3.3366,3.3425,3.3407,3.3484,3.344,3.3411,3.3436,3.3434,3.3486,3.3493,3.3512,3.3584,3.3587,3.3537,3.354,3.3542,3.3543,0,0,0,0,0,0,0,3.3254,3.3266,3.3383,3.3362,3.3365,3.3364,3.3373,3.3422,3.3456,3.3414,3.3414,3.3424,3.3487,3.3507,3.3514,3.3588,3.3537,3.3541,3.3544,3.3545,3.371,3.3712,0,0,0,0,0,0,3.3247,3.3262,3.3381,3.3386,3.3308,3.3368,3.3379,3.3407,3.3455,3.3462,3.3426,3.3424,3.35,3.3508,3.3516,3.3586,3.3542,3.3546,3.3549,3.3709,3.3711,3.3713,0,0,0,0,0,0,3.3244,3.3258,3.3377,3.3324,3.3339,3.3373,3.3405,3.3409,3.343,3.3464,3.347,3.344,3.3499,3.351,3.3564,3.3589,3.3548,3.3552,3.3707,3.3709,3.3712,3.3726,0,0,0,0,0,0,3.3239,3.3257,3.328,3.3325,3.3342,3.3425,3.3406,3.3412,3.3438,3.3437,3.3479,3.3485,3.3499,3.3558,3.3569,3.3594,3.3556,3.3705,3.3708,3.3711,3.3723,3.3728,3.3733,0,0,0,0,0,3.3233,3.328,3.3281,3.3295,3.3372,3.3427,3.3437,3.3453,3.344,3.3463,3.3485,3.3484,3.3585,3.3563,3.3576,3.3603,3.3703,3.3707,3.3711,3.3721,3.3727,3.3733,0,0,0,0,0,0,3.3235,3.3286,3.3288,3.3351,3.3385,3.3427,3.3457,3.346,3.3497,3.3494,3.3512,3.3521,3.3575,3.3595,3.357,3.366,3.3642,3.3649,3.3645,3.3652,3.3656,3.365,3.3559,0,0,0,0,0,3.3243,3.3285,3.3326,3.3377,3.3395,3.3423,3.3447,3.3457,3.3492,3.3506,3.3533,3.3565,3.3604,3.3629,3.3667,3.3726,3.3735,3.3751,3.3756,3.376,3.3764,3.3796,3.3803,3.3725,3.3725,3.3725,0,0,3.3259,3.3292,3.3317,3.3378,3.3406,3.3447,3.3435,3.3479,3.3509,3.3512,3.3565,3.3586,3.3623,3.368,3.3706,3.3698,3.3788,3.3765,3.3767,3.377,3.38,3.3808,3.3814,3.3727,3.3727,3.3726,0,0,3.3309,3.334,3.3385,3.3413,3.3456,3.3474,3.3485,3.3528,3.3542,3.3596,3.3599,3.3635,3.3702,3.3728,3.375,3.3811,3.381,3.3823,3.3847,3.3877,3.3883,3.3889,3.3909,3.3916,3.3828,3.3828,3.3828,0,3.3323,3.3387,3.3407,3.3452,3.3478,3.3485,3.353,3.3556,3.3608,3.3625,3.3615,3.37,3.3725,3.3788,3.3803,3.3821,3.3832,3.3817,3.3881,3.3887,3.3892,3.3911,3.3919,3.3829,3.3829,3.3828,3.3828,0,3.3402,3.3446,3.3477,3.3529,3.3559,3.3603,3.3628,3.3655,3.3663,3.3682,3.3736,3.3768,3.3811,3.3827,3.3835,3.3891,3.3884,3.3878,3.3859,3.3901,3.3919,3.3926,3.383,3.383,3.383,3.3829,0,0,3.3454,3.3517,3.3528,3.3551,3.3599,3.3633,3.3677,3.3721,3.3744,3.3779,3.3815,3.3872,3.3867,3.3892,3.3903,3.393,3.3973,3.392,3.3921,3.3927,3.4035,3.4038,3.4046,3.3974,3.3976,3.3977,3.4031,0,3.3508,3.3589,3.3608,3.3676,3.3715,3.3723,3.3761,3.3794,3.3813,3.3848,3.3868,3.3908,3.3899,3.3914,3.3941,3.3962,3.3995,3.3959,3.4005,3.4007,3.3994,3.4056,3.406,3.4109,3.4039,3.404,3.4041,0,3.3582,3.3621,3.3693,3.3735,3.3753,3.3787,3.3829,3.3864,3.39,3.3911,3.394,3.3948,3.3992,3.3973,3.4033,3.4008,3.4028,3.4042,3.4044,3.4047,3.4025,3.4059,3.4126,3.4133,3.4053,3.4052,3.4051,0,3.361,3.3681,3.3733,3.3753,3.3804,3.3828,3.385,3.3885,3.391,3.3947,3.3963,3.4004,3.4025,3.4056,3.4073,3.4058,3.4131,3.4114,3.414,3.414,3.4154,3.4152,3.4223,3.417,3.417,3.417,3.417,0,3.3668,3.3711,3.3747,3.3779,3.3827,3.3848,3.3895,3.3917,3.3948,3.3983,3.3992,3.4024,3.4047,3.4081,3.4096,3.4142,3.4152,3.4161,3.4164,3.416,3.4158,3.4172,3.4168,3.4172,3.4171,3.4171,3.4171,0,3.3707,3.3733,3.379,3.3835,3.3847,3.388,3.3917,3.3947,3.3967,3.4011,3.4022,3.4052,3.4094,3.4115,3.4166,3.4176,3.4228,3.4229,3.4216,3.4216,3.4241,3.4238,3.4321,3.4332,3.4274,3.4274,3.4275,0,3.3741,3.3775,3.3823,3.3848,3.3871,3.3911,3.3937,3.3959,3.3986,3.403,3.4055,3.4097,3.4132,3.4197,3.4222,3.4261,3.4263,3.429,3.4269,3.4263,3.4261,3.4258,3.4261,3.4292,3.4293,3.4293,3.4294,0,3.3798,3.3809,3.3848,3.3892,3.3924,3.3958,3.3992,3.4012,3.4039,3.4068,3.4112,3.4139,3.4192,3.4233,3.4274,3.4295,3.4298,3.4301,3.4308,3.4303,3.4293,3.4297,3.4224,3.4298,3.4298,3.4297,3.4297,3.4297,3.3835,3.3865,3.3904,3.3946,3.3975,3.4006,3.4037,3.4061,3.4098,3.4144,3.4155,3.42,3.4235,3.429,3.4312,3.4347,3.4341,3.4353,3.4355,3.4357,3.4358,3.4289,3.4354,3.4354,3.4354,3.4354,3.4354,0,3.389,3.3916,3.3956,3.4004,3.4037,3.404,3.4078,3.4105,3.4145,3.4178,3.4213,3.4262,3.4302,3.4331,3.4371,3.4393,3.4396,3.4403,3.44,3.4405,3.4361,3.435,3.44,3.44,3.44,3.44,3.44,3.44,3.3923,3.3974,3.399,3.4054,3.4079,3.4125,3.4146,3.4175,3.4202,3.4257,3.4291,3.431,3.4341,3.4384,3.442,3.4427,3.4441,3.4448,3.4455,3.4413,3.4408,3.4403,3.4392,3.4451,3.4451,3.4495,3.4496,3.4496]}]]